Galaxy 4H

operational
NORAD ID: 22694 Int'l Des: 1993-039 Owner: HCG Country: US
HEOCIRCULARGSO

Galaxy 4Hについて

説明を読み込み中...

リアルタイム位置

3D地球を読み込み中...

次回通過

高度履歴

Altitude vs Time

uPlot chart will show altitude changes over time

軌道要素

1 22694U 93039A 26062.53295052 -.00000133 00000-0 00000+0 0 9991
2 22694 14.5742 355.9438 0015780 31.4907 42.3924 1.00265326117941
Epoch: Mar 3, 2026 • Age: 25 hours

現在のステータス

高度 35837.1 km
速度 3.07 km/s
衛星直下点 -14.21°S, 76.13°E
打ち上げ日 Jun 25, 1993
運用期間 32.6 years
タイプ other

技術仕様

分類 Payload
質量 2988.00 kg
乾燥質量 1323.00 kg
総質量 2988.00 kg
長さ 4.00 m
直径 3.00 m
スパン 26.50 m
形状 Box + 2 Pan
製造者 HSES
バスタイプ HS-601
フェーズステータス Renamed
所有者/国 HCG/US

大規模コンステレーション

Loading constellations...